STARLINK-4086 (52833 NORAD) Tracking and Keplerian Element Data

This shows tracking and keplerian element data for the satellite.

Feedback or suggestion? Click here.




ElementValue
Catalog52833
NameSTARLINK-4086
Epoch Orbit130
Epoch Day247.83334491
Epoch Year2022
RAAN28.5926
Inclination53.2148
Eccentricity0.0001496
Argument of Perigee63.604
Mean Anonmoly345.2588
Mean Motion15.08844549
Decay Rate9.14E-05
L11 52833U 22062D 22247.83334491 .00009140 00000+0 59156-3 0 9997
L22 52833 53.2148 28.5926 0001496 63.6040 345.2588 15.08844549 1304

Live tracking and technical data element details for STARLINK-4086 (NORAD 52833). STARLINK-4086 can be tracked NOW for your location showing map with azimuth and elevation plus other details from your city location.

Track the satellite on the map from your city or location and see movement details for azimuth, elevation, latitude, longitude, range, height, and movement on the map or in text.







IsCatalogInMostPopularTable: catalog: 52833, numindb: 8
Update: records affected: 1



GetName: 52833 STARLINK-4086

Hit Count: updated at: Sun, 25 Sep 2022 07:34:03 GMT